Wind_Speed
8 8 8 8 8 9 9 9 8 8 9 9 9 9 9 9 9 9 9 9 9 10 9 9 8 9 9 9 9 9 9 9 8 8 9 9 9 9 9 9 9 9 9 9
9 9 9 9 9 9 9 9 9 9 10 10 10 10 10 9 9 9 10 10 10 10 10 10 9 10 9 9 9 9 9 9 10 10 10 10 10 9 9 9 9 9 10 9
10 10 10 10 10 11 11 11 11 11 11 11 11 11 11 11 10 10 10 10 11 11 11 11 10 10 11 11 10 10 10 10 11 11 11 11 11 11 10 10 10 10 10 9
11 11 12 12 11 12 12 12 12 12 13 13 13 12 11 12 11 11 11 11 11 11 12 12 11 11 11 11 12 11 11 11 11 11 12 11 11 11 11 10 10 10 10 10
12 12 12 12 12 12 12 12 12 13 13 13 13 13 11 12 12 12 12 12 12 12 12 12 12 11 11 11 11 11 12 12 13 12 12 12 12 11 11 10 10 10 10 10
13 13 13 12 12 13 13 13 14 14 14 14 13 13 11 12 12 12 12 12 13 13 12 13 12 12 12 11 12 12 12 12 13 13 13 12 12 12 12 11 11 11 11 10
14 14 14 13 13 13 13 13 14 14 14 14 13 13 12 12 13 13 13 13 13 13 13 13 13 13 12 12 13 13 13 13 13 13 13 13 13 13 12 12 12 12 11 11
15 14 14 14 14 14 13 14 14 14 14 13 13 13 13 13 13 13 13 13 14 14 13 14 14 14 13 13 14 14 13 13 13 13 13 13 14 14 13 13 13 13 13 12
15 15 14 14 15 14 14 14 14 15 14 14 13 13 13 13 13 13 14 14 14 14 14 14 14 14 15 14 14 14 14 14 14 13 13 13 14 14 14 14 14 14 13 13
15 16 15 15 16 15 15 14 14 15 15 14 14 13 13 13 13 13 14 14 15 15 15 15 15 15 15 15 15 15 15 15 15 15 14 14 14 15 15 15 15 14 13 13
15 15 15 16 16 16 15 15 16 16 16 16 15 15 15 14 14 14 14 15 15 16 16 16 16 16 16 16 16 16 16 16 16 15 15 15 15 16 16 16 15 14 14 14
16 16 16 16 16 16 17 17 17 18 18 18 17 16 16 16 16 16 15 15 15 16 16 16 16 17 17 17 17 17 17 17 17 16 16 15 16 16 16 16 15 15 15 15
16 17 17 16 16 17 18 18 19 19 19 19 19 18 18 18 18 17 17 17 16 16 16 16 16 16 17 17 17 17 17 18 18 17 17 16 16 17 16 16 16 16 16 15
17 17 17 18 17 17 18 18 19 20 20 20 19 18 18 19 19 19 19 18 17 17 17 17 17 16 16 17 17 17 17 17 17 17 17 17 17 17 17 17 17 17 17 17
19 19 18 19 19 19 19 19 20 20 21 21 19 20 19 20 20 20 20 20 20 19 19 19 18 18 18 18 18 18 18 18 17 17 18 18 18 18 18 18 19 19 19 18
20 20 20 20 20 20 20 20 21 22 22 22 22 21 20 21 21 21 22 22 21 21 21 21 21 20 20 19 19 20 20 20 19 19 19 19 19 19 19 19 19 20 21 21
21 22 22 22 22 22 22 21 23 23 23 23 22 21 21 22 23 23 23 23 23 22 22 23 22 22 22 21 21 21 21 21 21 21 21 21 21 21 21 21 21 21 21 22
22 23 24 24 24 24 22 22 23 23 23 23 23 23 23 23 23 24 24 24 24 24 25 24 25 25 24 24 23 24 24 24 23 23 23 23 24 24 24 24 24 24 23 23
23 24 25 25 25 24 23 23 23 23 22 23 23 23 24 24 24 25 26 26 25 26 26 26 26 26 27 26 26 25 25 26 26 25 25 25 26 26 26 26 26 26 26 26
25 26 27 26 27 25 23 24 24 25 24 24 25 25 26 26 26 26 27 27 27 27 27 27 27 27 28 28 28 27 27 27 27 27 27 27 28 28 28 28 28 28 28 28
25 26 27 28 28 27 26 26 26 26 25 26 27 27 28 29 29 28 29 29 29 29 29 29 29 29 30 30 29 29 29 29 29 29 29 29 29 29 29 29 29 30 30 29
25 26 27 27 29 28 28 27 27 28 28 28 28 29 29 29 30 30 30 31 31 30 31 31 31 31 32 32 32 31 31 31 31 31 31 31 31 31 31 31 31 31 31 30
26 27 28 28 28 28 29 30 30 30 30 29 30 30 30 30 30 31 32 32 32 32 32 33 33 33 33 34 34 34 33 33 33 33 33 32 32 32 32 32 32 32 32 32
27 28 29 30 29 29 29 30 31 32 32 32 32 32 32 32 32 32 32 32 33 33 33 33 34 34 34 35 35 35 35 35 35 35 34 34 34 33 33 33 33 33 33 33
28 29 30 30 31 32 31 32 33 33 33 33 34 35 35 35 34 34 33 33 33 33 33 34 35 35 35 35 35 36 36 36 36 35 35 35 35 35 35 34 34 34 34 35
29 31 32 32 32 34 33 34 34 34 34 35 36 36 36 36 36 35 35 34 34 34 34 34 35 36 36 36 37 37 37 37 37 36 37 37 37 37 37 37 36 36 36 36
Wind_Direction
260 259 260 263 260 260 259 260 262 262 266 270 273 272 272 272 269 269 270 269 268 268 275 278 279 279 278 277 279 281 281 286 290 292 294 296 296 296 293 290 295 297 299 302
260 261 262 264 264 264 263 262 262 264 268 270 272 271 269 270 271 272 273 274 272 271 276 278 277 278 279 277 277 281 282 285 287 289 292 293 292 292 294 294 294 297 299 300
262 262 263 265 266 266 267 265 263 265 267 268 268 268 269 271 272 274 276 278 279 278 277 277 278 278 278 277 277 279 282 282 283 286 289 289 287 286 287 291 293 293 294 293
263 263 263 264 266 268 268 266 265 265 266 266 267 267 269 271 272 273 276 276 276 275 276 276 276 277 277 277 277 277 281 281 281 284 287 287 286 285 287 289 288 287 289 293
266 265 264 266 266 268 266 265 266 266 267 268 269 269 270 272 271 271 272 272 272 272 270 270 272 275 279 279 278 277 280 282 283 283 284 284 284 283 285 288 286 286 289 291
265 266 267 267 267 267 267 266 265 267 269 271 272 271 271 272 272 272 271 270 272 271 270 271 273 276 280 281 279 279 282 283 284 284 282 283 282 281 283 283 284 284 285 288
262 265 267 267 267 266 266 269 270 270 271 273 273 273 274 273 272 272 271 271 272 272 272 272 274 277 279 279 277 277 279 283 283 281 279 281 282 283 284 283 284 282 283 285
260 262 266 267 268 269 268 271 272 275 276 274 275 276 277 276 275 274 273 273 275 274 273 273 275 276 277 278 277 277 279 279 281 281 278 277 279 281 281 282 283 280 280 282
261 263 264 265 267 268 269 270 274 275 277 277 277 277 278 278 278 276 275 274 274 275 274 274 276 277 276 276 276 277 277 277 279 282 278 277 277 278 278 279 280 279 279 279
262 264 264 264 265 266 268 270 272 275 278 279 279 278 280 278 278 277 274 273 273 274 275 275 276 276 277 276 276 275 276 278 280 282 282 279 278 277 278 279 280 278 276 275
261 263 263 263 263 266 267 269 271 274 276 280 281 281 279 278 278 277 273 273 274 274 276 277 277 277 276 275 274 275 276 277 280 279 281 284 280 279 278 277 276 277 276 275
260 261 261 262 264 265 267 269 271 273 277 279 281 282 282 281 279 277 275 273 274 274 274 274 275 277 275 273 272 273 275 278 279 278 279 282 283 281 278 275 275 276 277 275
259 261 262 262 264 266 268 271 272 274 275 277 279 282 280 281 280 278 276 275 275 274 273 273 273 275 274 272 271 271 273 276 277 279 278 279 281 282 277 274 274 274 273 273
258 261 263 266 269 270 270 271 273 275 277 279 280 280 279 278 278 276 275 275 276 275 274 272 271 270 270 270 270 270 271 275 276 276 276 277 278 280 279 276 274 272 272 271
258 259 262 266 268 269 270 272 273 275 277 279 280 280 279 278 277 277 276 276 276 273 272 271 269 269 268 269 271 271 271 274 275 276 276 275 275 276 277 277 275 272 272 272
260 261 262 264 268 270 271 273 275 276 278 279 280 280 279 279 278 277 277 277 274 271 269 268 268 269 270 269 270 271 270 271 273 274 276 277 277 277 275 275 277 276 274 272
262 264 265 267 268 271 273 275 276 278 279 280 280 279 277 277 278 278 276 274 273 271 269 268 268 269 269 269 269 270 270 270 271 273 274 276 277 277 277 276 276 277 276 276
264 267 269 268 268 271 277 277 278 279 279 278 278 277 276 276 277 277 278 276 276 273 271 269 268 268 269 270 270 270 271 271 273 273 272 273 275 277 277 277 276 276 276 276
264 267 270 270 270 271 275 279 280 279 278 278 278 278 278 277 277 277 277 278 278 275 272 269 268 267 269 270 270 270 271 272 273 274 274 274 274 274 275 276 276 275 275 274
266 267 270 271 272 274 277 279 280 279 279 278 278 279 279 279 277 276 275 275 276 275 274 271 268 266 267 269 270 270 271 272 273 274 274 274 275 275 274 274 274 274 274 274
267 269 270 271 273 275 278 278 278 278 279 278 278 279 280 280 279 277 276 275 275 274 273 271 268 267 267 268 269 270 271 272 273 273 273 273 274 275 275 274 273 273 273 273
269 269 271 273 274 276 278 279 280 280 279 278 278 279 279 279 279 278 277 276 275 274 274 272 270 268 268 269 270 270 270 271 272 272 273 273 273 274 274 273 272 272 272 272
269 271 272 274 276 277 278 280 281 280 279 279 278 279 280 280 280 280 278 277 277 276 275 273 271 269 268 269 270 270 270 271 272 272 272 272 272 272 272 271 271 271 271 271
270 271 272 273 275 277 279 281 281 281 280 280 280 280 280 281 281 281 280 279 278 277 276 274 271 269 269 270 270 271 271 272 273 272 272 272 272 271 271 271 271 271 271 270
271 273 273 274 275 277 279 280 281 282 283 282 281 281 281 281 281 281 280 279 279 278 276 275 274 272 270 270 271 272 272 273 273 273 273 272 271 270 271 271 271 270 270 270
271 272 273 274 275 277 278 278 280 281 282 282 283 283 281 281 281 281 280 279 278 277 277 276 275 273 272 272 272 273 272 272 272 273 272 272 271 270 270 270 271 271 271 270
Height
5862 5864 5863 5864 5864 5864 5865 5865 5865 5866 5866 5866 5866 5866 5866 5866 5866 5866 5866 5866 5865 5865 5865 5864 5864 5864 5863 5863 5862 5862 5861 5861 5860 5860 5859 5858 5858 5857 5857 5856 5855 5854 5854 5853
5862 5862 5862 5862 5862 5863 5863 5864 5864 5864 5864 5864 5864 5864 5864 5864 5864 5864 5864 5864 5863 5863 5862 5862 5862 5861 5861 5860 5860 5859 5859 5859 5858 5858 5857 5856 5856 5855 5855 5854 5853 5852 5852 5851
5859 5860 5860 5860 5860 5861 5861 5861 5862 5862 5862 5862 5862 5863 5862 5862 5862 5862 5862 5861 5861 5860 5860 5859 5859 5859 5858 5858 5857 5857 5856 5856 5856 5855 5855 5854 5853 5853 5852 5852 5851 5850 5850 5849
5857 5857 5858 5858 5858 5858 5859 5859 5859 5859 5859 5859 5860 5860 5860 5860 5859 5859 5859 5858 5858 5857 5857 5856 5856 5856 5855 5855 5855 5854 5854 5854 5853 5853 5852 5851 5851 5850 5850 5849 5849 5848 5847 5847
5855 5855 5855 5855 5856 5856 5856 5856 5856 5856 5856 5857 5857 5857 5858 5857 5857 5856 5856 5855 5855 5854 5854 5853 5853 5853 5853 5852 5852 5851 5851 5850 5850 5850 5849 5849 5848 5848 5847 5847 5846 5846 5845 5844
5852 5852 5853 5853 5853 5853 5853 5853 5853 5853 5853 5854 5854 5854 5855 5854 5854 5853 5853 5852 5851 5851 5851 5850 5850 5850 5850 5849 5849 5848 5848 5847 5847 5846 5846 5846 5845 5845 5845 5844 5844 5843 5842 5842
5849 5849 5850 5850 5850 5850 5851 5851 5851 5850 5850 5851 5851 5850 5852 5850 5850 5850 5849 5849 5848 5848 5847 5847 5847 5846 5846 5846 5845 5845 5844 5844 5844 5843 5843 5842 5842 5842 5841 5841 5841 5840 5840 5839
5845 5847 5847 5847 5847 5847 5847 5848 5848 5848 5847 5847 5847 5847 5848 5847 5846 5846 5846 5845 5845 5844 5844 5843 5843 5843 5843 5842 5842 5842 5841 5841 5840 5840 5839 5839 5839 5839 5838 5838 5837 5837 5836 5836
5842 5843 5844 5844 5844 5844 5844 5844 5844 5844 5844 5844 5843 5844 5844 5843 5843 5842 5842 5841 5841 5841 5840 5840 5840 5839 5839 5839 5838 5838 5838 5837 5837 5836 5836 5836 5835 5835 5835 5834 5834 5833 5833 5832
5838 5839 5840 5840 5840 5840 5841 5841 5841 5840 5840 5840 5840 5840 5840 5839 5839 5839 5838 5837 5837 5837 5836 5836 5836 5835 5835 5835 5834 5834 5834 5834 5833 5833 5832 5832 5832 5831 5831 5831 5830 5830 5829 5829
5834 5835 5836 5836 5836 5837 5837 5837 5837 5837 5836 5836 5836 5839 5836 5836 5835 5835 5834 5834 5833 5833 5832 5832 5832 5831 5831 5831 5830 5830 5830 5830 5829 5829 5829 5828 5828 5827 5827 5827 5826 5826 5825 5825
5830 5831 5831 5832 5832 5832 5833 5833 5833 5833 5833 5832 5832 5836 5832 5831 5831 5830 5830 5829 5829 5828 5828 5828 5828 5827 5827 5826 5826 5826 5826 5826 5825 5825 5825 5824 5823 5823 5823 5822 5822 5822 5821 5821
5825 5826 5827 5827 5830 5829 5828 5828 5828 5828 5828 5827 5827 5831 5827 5826 5826 5826 5825 5825 5824 5824 5824 5823 5823 5823 5822 5822 5822 5822 5822 5821 5821 5820 5820 5820 5819 5819 5818 5818 5818 5817 5817 5817
5821 5821 5823 5824 5824 5824 5824 5824 5823 5823 5823 5823 5823 5823 5822 5821 5821 5820 5820 5820 5819 5819 5819 5819 5818 5818 5817 5817 5817 5817 5817 5816 5816 5816 5816 5815 5815 5814 5814 5814 5813 5813 5812 5812
5816 5817 5817 5818 5818 5819 5819 5819 5818 5818 5817 5817 5818 5817 5817 5816 5815 5815 5814 5814 5814 5814 5813 5813 5813 5813 5812 5812 5812 5812 5812 5811 5811 5811 5810 5810 5810 5810 5809 5809 5808 5808 5807 5807
5811 5812 5812 5813 5813 5813 5813 5813 5813 5812 5812 5811 5811 5812 5811 5810 5809 5809 5808 5808 5808 5808 5807 5807 5807 5807 5807 5807 5806 5806 5806 5806 5806 5805 5805 5805 5804 5804 5804 5803 5803 5802 5802 5802
5805 5806 5807 5807 5807 5807 5808 5809 5807 5807 5806 5806 5805 5806 5804 5804 5803 5802 5802 5801 5801 5801 5801 5801 5801 5801 5801 5800 5800 5800 5800 5799 5799 5799 5799 5799 5799 5798 5798 5798 5797 5796 5796 5795
5800 5800 5801 5801 5802 5802 5805 5802 5801 5801 5800 5799 5799 5798 5798 5797 5797 5796 5795 5794 5794 5794 5793 5793 5793 5794 5794 5794 5793 5793 5793 5793 5792 5792 5792 5792 5792 5791 5791 5791 5790 5790 5789 5789
5794 5794 5794 5794 5794 5796 5797 5796 5795 5794 5794 5793 5792 5791 5791 5790 5789 5789 5788 5787 5787 5786 5786 5786 5786 5786 5786 5786 5786 5786 5785 5785 5785 5785 5785 5784 5784 5784 5783 5783 5783 5782 5781 5781
5788 5788 5788 5788 5788 5789 5791 5790 5788 5788 5787 5787 5785 5784 5783 5782 5782 5782 5780 5780 5779 5778 5778 5778 5778 5778 5778 5778 5777 5778 5778 5777 5777 5777 5776 5776 5775 5775 5775 5774 5774 5773 5773 5773
5781 5781 5781 5781 5780 5781 5783 5782 5781 5781 5781 5779 5777 5776 5775 5774 5774 5773 5772 5771 5771 5770 5770 5769 5769 5769 5769 5769 5769 5769 5770 5769 5769 5768 5768 5767 5766 5766 5765 5765 5764 5764 5764 5763
5775 5774 5774 5774 5774 5776 5775 5774 5774 5773 5772 5770 5769 5768 5767 5766 5765 5764 5763 5762 5762 5761 5761 5760 5760 5760 5760 5760 5760 5760 5760 5760 5759 5759 5758 5757 5757 5756 5756 5755 5755 5754 5754 5754
5768 5768 5767 5768 5769 5767 5766 5765 5765 5764 5763 5762 5761 5760 5759 5757 5756 5755 5754 5753 5752 5752 5751 5751 5750 5750 5750 5750 5750 5750 5750 5749 5749 5749 5748 5747 5747 5746 5746 5745 5745 5745 5744 5744
5761 5760 5760 5760 5760 5759 5758 5757 5756 5755 5754 5753 5752 5751 5749 5748 5747 5746 5745 5744 5742 5741 5741 5740 5740 5740 5740 5740 5739 5739 5738 5738 5738 5738 5737 5737 5736 5736 5735 5735 5734 5734 5734 5734
5754 5752 5752 5751 5752 5751 5751 5749 5748 5746 5745 5744 5743 5741 5739 5738 5737 5736 5735 5734 5732 5731 5730 5729 5729 5729 5729 5729 5729 5728 5727 5727 5726 5726 5726 5726 5726 5725 5725 5724 5724 5723 5723 5723
5746 5744 5743 5743 5743 5742 5742 5740 5739 5737 5736 5734 5733 5731 5729 5727 5726 5725 5724 5723 5722 5721 5719 5718 5718 5717 5717 5717 5717 5717 5716 5716 5715 5715 5715 5714 5714 5714 5713 5713 5713 5712 5712 5711